Flag Weather past 2 weeks in Clovis, New Mexico, U.S.A.

Now
33 °F

Clear.


Feels Like: 25 °F
Forecast: 28 / 51 °F
Wind: 12 mph from Northwest

Location: Cannon Air Force Base / Clovis

Current Time: Nov 23, 2014 at 10:27:16 PM

Latest Report: Nov 23, 2014 at 9:58 PM


Visibility: 10 mi

Pressure: 29.92 "Hg

Humidity: 81%

Dew point: 28 °F

Location of ClovisLocation

Historic Weather in Clovis — Graph

°F

Clovis temperature yesterday

Maximum temperature yesterday: 68 °F (at 3:58 PM)
Minimum temperature yesterday: 41 °F (at 6:58 AM)
Average temperature yesterday: 55 °F

Past Weeks' High & Low Weather Summary

 TemperatureHumidityPressure
High77 °F (Nov 10, 1:58 PM)95% (Nov 22, 5:58 AM)30.65 "Hg (Nov 22, 5:58 AM)
Low10 °F (Nov 17, 4:58 AM)11% (Nov 20, 3:58 PM)29.44 "Hg (Nov 10, 1:58 PM)
Average38 °F53%30.06 "Hg
* Reported Nov 8 8:58 PM — Nov 23 8:58 PM, Clovis, Weather by CustomWeather, © 2014

Note: Actual official high and low records may vary slightly from our data, if they occured in-between our weather recording intervals... More about our weather records

Advertising

Clovis weather history for previous 24 hours

 ConditionsComfort  
Time TempWeatherWind HumidityBarometerVisibility
8:58 PM
Nov 23
33 °FClear.12 mph84%29.91 "Hg10 mi
7:58 PM35 °FClear.12 mph78%29.89 "Hg10 mi
6:58 PM36 °FOvercast.10 mph79%29.86 "Hg10 mi
5:58 PM36 °FClear.8 mph80%29.85 "Hg10 mi
4:58 PM36 °FClear.9 mph82%29.85 "Hg10 mi
3:58 PM36 °FSunny.20 mph84%29.83 "Hg10 mi
2:58 PM37 °FLight snow. Partly sunny.25 mph82%29.79 "Hg10 mi
1:58 PM41 °FLight rain. Passing clouds.29 mph66%29.70 "Hg10 mi
12:58 PM44 °FPassing clouds.32 mph61%29.66 "Hg10 mi
11:58 AM49 °FLight rain. Passing clouds.25 mph52%29.62 "Hg10 mi
10:58 AM58 °FPassing clouds.20 mph26%29.58 "Hg10 mi
9:58 AM57 °FSunny.25 mph27%29.56 "Hg10 mi
8:58 AM54 °FSunny.25 mph28%29.56 "Hg10 mi
7:58 AM49 °FSunny.22 mph30%29.56 "Hg10 mi
6:58 AM54 °FSunny.17 mph26%29.55 "Hg10 mi
5:58 AM54 °FClear.21 mph26%29.55 "Hg10 mi
4:58 AM50 °FClear.14 mph30%29.58 "Hg10 mi
3:58 AM50 °FClear.12 mph28%29.59 "Hg10 mi
2:58 AM43 °FClear.3 mph34%29.63 "Hg10 mi
1:58 AM46 °FClear.12 mph32%29.63 "Hg10 mi
12:58 AM45 °FClear.12 mph31%29.65 "Hg10 mi
11:58 PM
Nov 22
45 °FClear.13 mph31%29.67 "Hg10 mi
10:58 PM48 °FClear.13 mph29%29.65 "Hg10 mi
Weather by CustomWeather, © 2014

See weather overviewHow to use our weather pages